DW0275 Weather Reports


time (UTC)temp
C
wind
direction
speed
KPH
gust
KPH
rain 1hr
cm
rain 24hr
cm
rain mn
cm
humidity
%
barometer
mb
20260509051340 25 150 0.0 3.2 0.00 0.00 0.00 89 1014.9
20260509050830 25 150 0.0 3.2 0.00 0.00 0.00 89 1014.9
20260509050325 25 128 0.0 1.6 0.00 0.00 0.00 89 1014.8
20260509045848 25 120 0.0 4.8 0.00 0.00 0.00 89 1014.9
20260509045334 26 110 1.6 4.8 0.00 0.00 0.00 89 1014.9
20260509044827 26 138 1.6 6.4 0.00 0.00 0.00 88 1014.9
20260509044335 26 131 3.2 4.8 0.00 0.00 0.00 88 1015.1
20260509043828 26 132 3.2 4.8 0.00 0.00 0.00 88 1015.1
20260509043323 26 105 1.6 6.4 0.00 0.00 0.00 88 1015.1
20260509042844 26 122 3.2 6.4 0.00 0.00 0.00 88 1015.1
20260509042337 26 126 3.2 4.8 0.00 0.00 0.00 88 1015.3
20260509041821 26 123 3.2 4.8 0.00 0.00 0.00 88 1015.3
20260509041332 26 117 0.0 3.2 0.00 0.00 0.00 88 1015.4
20260509040826 26 133 0.0 4.8 0.00 0.00 0.00 88 1015.3
20260509040347 26 143 0.0 4.8 0.00 0.00 0.00 87 1015.4
20260509035832 26 148 0.0 4.8 0.00 0.00 0.00 87 1015.3
20260509035323 26 150 0.0 3.2 0.00 0.00 0.00 87 1015.4
20260509034833 26 141 0.0 6.4 0.00 0.00 0.00 87 1015.4
20260509034327 26 131 1.6 4.8 0.00 0.00 0.00 87 1015.4
20260509033841 26 131 0.0 4.8 0.00 0.00 0.00 87 1015.4
20260509033343 26 151 1.6 6.4 0.00 0.00 0.00 87 1015.3
20260509032826 26 118 1.6 6.4 0.00 0.00 0.00 86 1015.4
20260509032334 26 123 0.0 4.8 0.00 0.00 0.00 86 1015.4
20260509031825 26 124 3.2 6.4 0.00 0.00 0.00 86 1015.4
20260509031346 26 120 3.2 6.4 0.00 0.00 0.00 86 1015.4
20260509030830 26 131 3.2 4.8 0.00 0.00 0.00 86 1015.4
20260509030345 26 122 3.2 4.8 0.00 0.00 0.00 86 1015.3
20260509025835 26 119 1.6 4.8 0.00 0.00 0.00 85 1015.4
20260509025330 26 134 3.2 4.8 0.00 0.00 0.00 85 1015.4
20260509024822 26 122 1.6 6.4 0.00 0.00 0.00 85 1015.4
20260509024336 26 108 3.2 8.0 0.00 0.00 0.00 85 1015.5
20260509023830 26 110 3.2 9.7 0.00 0.00 0.00 85 1015.4
20260509023325 26 124 4.8 9.7 0.00 0.00 0.00 85 1015.3
20260509022835 26 120 6.4 8.0 0.00 0.00 0.00 85 1015.4
20260509022329 26 127 3.2 8.0 0.00 0.00 0.00 85 1015.2
20260509021821 26 112 4.8 8.0 0.00 0.00 0.00 85 1015.2
20260509021345 26 122 3.2 8.0 0.00 0.00 0.00 85 1015.3
20260509020840 26 127 1.6 4.8 0.00 0.00 0.00 84 1015.2
20260509020350 26 126 1.6 4.8 0.00 0.00 0.00 85 1015.1
20260509015850 26 125 1.6 6.4 0.00 0.00 0.00 84 1015.1
20260509015343 26 122 4.8 6.4 0.00 0.00 0.00 84 1015.0
20260509014829 26 134 3.2 6.4 0.00 0.00 0.00 84 1014.9
20260509014322 26 135 1.6 9.7 0.00 0.00 0.00 84 1014.9
20260509013832 26 125 4.8 9.7 0.00 0.00 0.00 84 1014.7
20260509013406 26 75 4.8 9.7 0.00 0.00 0.00 84 1014.7
20260509012903 26 127 3.2 9.7 0.00 0.00 0.00 83 1014.7
20260509012336 26 169 4.8 8.0 0.00 0.00 0.00 83 1014.8
20260509011820 26 82 4.8 8.0 0.00 0.00 0.00 83 1014.8
20260509011330 26 141 1.6 8.0 0.00 0.00 0.00 83 1014.7
20260509010823 26 115 3.2 8.0 0.00 0.00 0.00 83 1014.5
20260509010326 26 78 4.8 8.0 0.00 0.00 0.00 83 1014.6
20260509005829 26 119 3.2 8.0 0.00 0.00 0.00 83 1014.5
20260509005343 26 139 1.6 6.4 0.00 0.00 0.00 83 1014.4
20260509004852 26 108 3.2 6.4 0.00 0.00 0.00 82 1014.2
20260509004324 26 106 1.6 4.8 0.00 0.00 0.00 82 1014.2
20260509003826 27 114 1.6 8.0 0.00 0.00 0.00 82 1014.1
20260509003349 27 119 3.2 8.0 0.00 0.00 0.00 82 1014.1
20260509002843 27 144 3.2 6.4 0.00 0.00 0.00 81 1014.0
20260509002328 27 103 3.2 6.4 0.00 0.00 0.00 81 1013.9
20260509001828 27 124 3.2 11.3 0.00 0.00 0.00 81 1013.7
20260509001342 27 116 3.2 11.3 0.00 0.00 0.00 81 1013.6
20260509000842 27 110 4.8 11.3 0.00 0.00 0.00 81 1013.5
20260509000348 27 129 4.8 11.3 0.00 0.00 0.00 81 1013.5
20260508235833 27 135 4.8 9.7 0.00 0.00 0.00 80 1013.7
20260508235325 27 134 4.8 9.7 0.00 0.00 0.00 80 1013.5
20260508234837 27 71 3.2 8.0 0.00 0.00 0.00 80 1013.4
20260508234351 27 75 4.8 9.7 0.00 0.00 0.00 79 1013.5
20260508233841 27 103 3.2 11.3 0.00 0.00 0.00 79 1013.5
20260508233330 27 71 6.4 11.3 0.00 0.00 0.00 79 1013.5
20260508232822 27 119 4.8 9.7 0.00 0.00 0.00 78 1013.5
20260508232344 27 112 4.8 9.7 0.00 0.00 0.00 78 1013.5
20260508231827 28 115 6.4 11.3 0.00 0.00 0.00 78 1013.4
20260508231322 28 141 6.4 11.3 0.00 0.00 0.00 78 1013.4
20260508230830 28 146 3.2 9.7 0.00 0.00 0.00 78 1013.5
20260508230354 28 85 3.2 12.9 0.00 0.00 0.00 78 1013.5
20260508225843 28 109 8.0 12.9 0.00 0.00 0.00 77 1013.3
20260508225345 28 155 4.8 8.0 0.00 0.00 0.00 77 1013.3
20260508224839 28 105 4.8 14.5 0.00 0.00 0.00 77 1013.3
20260508224329 28 70 6.4 14.5 0.00 0.00 0.00 76 1013.3
20260508223822 28 120 8.0 14.5 0.00 0.00 0.00 76 1013.2
20260508223346 28 150 6.4 16.1 0.00 0.00 0.00 76 1013.1
20260508222839 28 122 6.4 16.1 0.00 0.00 0.00 75 1013.2
20260508222353 29 129 9.7 14.5 0.00 0.00 0.00 76 1013.1
20260508221852 29 131 6.4 14.5 0.00 0.00 0.00 75 1013.1
20260508221326 29 143 6.4 14.5 0.00 0.00 0.00 75 1013.1
20260508220848 29 57 6.4 14.5 0.00 0.00 0.00 74 1013.1
20260508220319 29 72 8.0 16.1 0.00 0.00 0.00 73 1013.1
20260508215841 30 132 6.4 16.1 0.00 0.00 0.00 72 1013.2
20260508215330 30 88 6.4 12.9 0.00 0.00 0.00 71 1013.2
20260508214846 29 103 6.4 12.9 0.00 0.00 0.00 72 1013.2
20260508214320 29 96 6.4 12.9 0.00 0.00 0.00 71 1013.2
20260508213820 29 107 6.4 12.9 0.00 0.00 0.00 69 1013.3
20260508213334 30 82 6.4 14.5 0.00 0.00 0.00 70 1013.3
20260508212820 30 89 6.4 14.5 0.00 0.00 0.00 68 1013.3
20260508212331 30 65 8.0 16.1 0.00 0.00 0.00 69 1013.3
20260508211824 30 57 6.4 16.1 0.00 0.00 0.00 67 1013.3
20260508211336 30 100 6.4 12.9 0.00 0.00 0.00 67 1013.3
20260508210830 30 71 6.4 14.5 0.00 0.00 0.00 66 1013.3
20260508210324 30 76 6.4 14.5 0.00 0.00 0.00 67 1013.5
20260508205833 30 51 6.4 17.7 0.00 0.00 0.00 66 1013.4
20260508205327 30 136 4.8 17.7 0.00 0.00 0.00 64 1013.3
20260508204841 30 93 4.8 16.1 0.00 0.00 0.00 66 1013.3
20260508204354 30 70 8.0 16.1 0.00 0.00 0.00 65 1013.4
20260508203825 30 134 9.7 17.7 0.00 0.00 0.00 63 1013.4
20260508203332 30 117 9.7 17.7 0.00 0.00 0.00 66 1013.5
20260508202825 30 189 9.7 16.1 0.00 0.00 0.00 67 1013.4
20260508202346 30 109 6.4 16.1 0.00 0.00 0.00 67 1013.7
20260508201830 31 140 9.7 16.1 0.00 0.00 0.00 67 1013.7
20260508201324 31 127 6.4 12.9 0.00 0.00 0.00 70 1013.7
20260508200834 31 28 6.4 12.9 0.00 0.00 0.00 67 1013.8
20260508200345 31 72 6.4 14.5 0.00 0.00 0.00 68 1013.9
20260508195837 31 139 4.8 16.1 0.00 0.00 0.00 69 1013.9
20260508195402 30 131 4.8 20.9 0.00 0.00 0.00 69 1014.0
20260508194825 30 126 6.4 20.9 0.00 0.00 0.00 69 1014.1
20260508194334 31 145 6.4 12.9 0.00 0.00 0.00 70 1014.2
20260508193828 30 102 4.8 16.1 0.00 0.00 0.00 70 1014.2
20260508193320 30 85 8.0 17.7 0.00 0.00 0.00 69 1014.3
20260508192835 30 30 9.7 17.7 0.00 0.00 0.00 71 1014.3
20260508192330 31 234 8.0 12.9 0.00 0.00 0.00 69 1014.3
20260508191829 31 130 4.8 17.7 0.00 0.00 0.00 70 1014.3
20260508191321 31 134 8.0 19.3 0.00 0.00 0.00 70 1014.4
20260508190835 31 67 6.4 19.3 0.00 0.00 0.00 70 1014.5
20260508190328 31 120 8.0 19.3 0.00 0.00 0.00 71 1014.6
20260508185843 31 105 9.7 19.3 0.00 0.00 0.00 71 1014.5
20260508185328 30 120 6.4 17.7 0.00 0.00 0.00 71 1014.7
20260508184835 30 354 6.4 17.7 0.00 0.00 0.00 72 1014.8
20260508184346 30 27 4.8 16.1 0.00 0.00 0.00 72 1014.8
20260508183819 31 13 8.0 16.1 0.00 0.00 0.00 72 1014.8
20260508183340 31 54 8.0 12.9 0.00 0.00 0.00 71 1014.8
20260508182834 31 71 8.0 16.1 0.00 0.00 0.00 72 1014.9
20260508182324 30 18 8.0 16.1 0.00 0.00 0.00 72 1015.0
20260508181828 31 163 8.0 14.5 0.00 0.00 0.00 71 1015.0
20260508181342 31 102 4.8 11.3 0.00 0.00 0.00 70 1015.0
20260508180830 31 114 6.4 11.3 0.00 0.00 0.00 71 1015.1
20260508180343 31 116 6.4 16.1 0.00 0.00 0.00 70 1015.1
20260508175852 32 115 4.8 16.1 0.00 0.00 0.00 67 1015.3
20260508175341 32 116 4.8 9.7 0.00 0.00 0.00 69 1015.3
20260508174832 32 70 1.6 8.0 0.00 0.00 0.00 60 1015.4
20260508174346 32 54 3.2 8.0 0.00 0.00 0.00 59 1015.2
20260508173834 33 326 1.6 4.8 0.00 0.00 0.00 59 1015.3
20260508173328 33 31 1.6 3.2 0.00 0.00 0.00 63 1015.3
20260508172821 33 290 0.0 3.2 0.00 0.00 0.00 60 1015.4
20260508172323 32 290 0.0 1.6 0.00 0.00 0.00 63 1015.5
20260508171835 32 23 0.0 6.4 0.00 0.00 0.00 66 1015.6
20260508171329 32 72 1.6 6.4 0.00 0.00 0.00 63 1015.6
20260508170819 32 19 1.6 3.2 0.00 0.00 0.00 61 1015.8
20260508170331 32 46 0.0 0.0 0.00 0.00 0.00 65 1015.8
20260508165847 32 285 0.0 1.6 0.00 0.00 0.00 63 1016.0
20260508165330 32 285 0.0 4.8 0.00 0.00 0.00 64 1016.1
20260508164841 31 13 1.6 6.4 0.00 0.00 0.00 65 1016.1
20260508164330 32 1 3.2 6.4 0.00 0.00 0.00 64 1016.2
20260508163828 32 348 1.6 4.8 0.00 0.00 0.00 65 1016.3
20260508163337 31 115 0.0 6.4 0.00 0.00 0.00 62 1016.4
20260508162849 31 111 3.2 6.4 0.00 0.00 0.00 60 1016.4
20260508162321 31 148 1.6 6.4 0.00 0.00 0.00 62 1016.4
20260508161838 31 8 1.6 8.0 0.00 0.00 0.00 65 1016.4
20260508161349 31 68 1.6 8.0 0.00 0.00 0.00 65 1016.5
20260508160820 31 326 3.2 8.0 0.00 0.00 0.00 67 1016.4
20260508160341 30 136 1.6 8.0 0.00 0.00 0.00 69 1016.4
20260508155859 31 27 3.2 8.0 0.00 0.00 0.00 70 1016.6
20260508155328 30 36 1.6 8.0 0.00 0.00 0.00 67 1016.6
20260508154841 31 349 3.2 8.0 0.00 0.00 0.00 70 1016.7
20260508154322 30 148 1.6 8.0 0.00 0.00 0.00 70 1016.8
20260508153842 30 335 3.2 6.4 0.00 0.00 0.00 70 1016.8
20260508153327 30 53 3.2 9.7 0.00 0.00 0.00 71 1016.8
20260508152838 30 319 4.8 9.7 0.00 0.00 0.00 70 1016.9
20260508152332 30 314 1.6 11.3 0.00 0.00 0.00 73 1017.0
20260508151826 30 34 3.2 11.3 0.00 0.00 0.00 74 1016.9
20260508151348 30 47 3.2 8.0 0.00 0.00 0.00 72 1016.9
20260508150840 30 37 3.2 8.0 0.00 0.00 0.00 71 1017.0
20260508150336 30 323 1.6 11.3 0.00 0.00 0.00 74 1016.8
20260508145829 29 335 4.8 11.3 0.00 0.00 0.00 74 1016.9
20260508145322 29 26 8.0 11.3 0.00 0.00 0.00 73 1016.9
20260508144843 29 32 3.2 12.9 0.00 0.00 0.00 75 1016.8
20260508144410 28 32 6.4 12.9 0.00 0.00 0.00 75 1016.8
20260508143857 29 23 6.4 12.9 0.00 0.00 0.00 73 1016.7
20260508143330 29 352 3.2 12.9 0.00 0.00 0.00 75 1016.8
20260508142844 29 20 3.2 8.0 0.00 0.00 0.00 74 1016.8
20260508142322 29 295 3.2 11.3 0.00 0.00 0.00 74 1016.8
20260508141831 28 9 3.2 12.9 0.00 0.00 0.00 75 1016.9
20260508141340 28 343 4.8 12.9 0.00 0.00 0.00 75 1016.8
20260508140851 28 319 6.4 12.9 0.00 0.00 0.00 76 1016.8
20260508140322 28 18 4.8 9.7 0.00 0.00 0.00 76 1016.7
20260508135822 28 345 6.4 12.9 0.00 0.00 0.00 76 1016.7
20260508135334 28 347 6.4 12.9 0.00 0.00 0.00 76 1016.7
20260508134825 28 348 4.8 12.9 0.00 0.00 0.00 77 1016.7
20260508134334 28 340 4.8 9.7 0.00 0.00 0.00 76 1016.7
20260508133844 28 24 6.4 11.3 0.00 0.00 0.00 76 1016.8
20260508133349 27 334 4.8 11.3 0.00 0.00 0.00 76 1016.7
20260508132842 28 338 6.4 9.7 0.00 0.00 0.00 76 1016.8
20260508132331 27 316 4.8 9.7 0.00 0.00 0.00 76 1016.8
20260508131830 27 337 3.2 8.0 0.00 0.00 0.00 77 1016.7
20260508131328 27 299 1.6 9.7 0.00 0.00 0.00 77 1016.7
20260508130848 27 326 4.8 9.7 0.00 0.00 0.00 77 1016.7
20260508130357 26 345 3.2 8.0 0.00 0.00 0.00 77 1016.5
20260508125836 26 8 3.2 9.7 0.00 0.00 0.00 77 1016.5
20260508125327 26 347 1.6 11.3 0.00 0.00 0.00 77 1016.4
20260508124822 26 338 4.8 11.3 0.00 0.00 0.00 77 1016.5
20260508124323 26 358 4.8 8.0 0.00 0.00 0.00 77 1016.5
20260508123845 26 341 1.6 8.0 0.00 0.00 0.00 77 1016.5
20260508123358 25 337 1.6 8.0 0.00 0.00 0.00 78 1016.5
20260508122847 25 352 1.6 6.4 0.00 0.00 0.00 77 1016.5
20260508122400 25 25 0.0 3.2 0.00 0.00 0.00 78 1016.5
20260508121844 25 25 1.6 4.8 0.00 0.00 0.00 78 1016.5
20260508121336 25 323 0.0 4.8 0.00 0.00 0.00 78 1016.4
20260508120838 25 353 1.6 4.8 0.00 0.00 0.00 78 1016.4
20260508120328 24 4 1.6 6.4 0.00 0.00 0.00 78 1016.3
20260508115827 24 350 3.2 6.4 0.00 0.00 0.00 79 1016.2
20260508115341 23 14 1.6 4.8 0.00 0.00 0.00 79 1016.1
20260508114906 23 354 1.6 3.2 0.00 0.00 0.00 79 1016.0
20260508114331 23 356 0.0 3.2 0.00 0.00 0.00 79 1016.0
20260508113824 23 12 1.6 3.2 0.00 0.00 0.00 80 1016.0
20260508113348 23 1 0.0 3.2 0.00 0.00 0.00 80 1015.9
20260508112821 22 349 0.0 0.0 0.00 0.00 0.00 81 1016.0
20260508112334 22 349 0.0 1.6 0.00 0.00 0.00 82 1015.9
20260508111851 22 21 0.0 1.6 0.00 0.00 0.00 82 1015.9
20260508111344 22 22 0.0 0.0 0.00 0.00 0.00 83 1015.7
20260508110844 22 22 0.0 0.0 0.00 0.00 0.00 83 1015.6
20260508110337 21 22 0.0 0.0 0.00 0.00 0.00 83 1015.5
20260508105822 21 22 0.0 0.0 0.00 0.00 0.00 83 1015.4
20260508105333 21 22 0.0 0.0 0.00 0.00 0.00 83 1015.3
20260508104827 21 22 0.0 1.6 0.00 0.00 0.00 83 1015.1
20260508104350 22 22 0.0 1.6 0.00 0.00 0.00 83 1015.1
20260508103832 21 355 0.0 1.6 0.00 0.00 0.00 83 1015.1
20260508103344 21 334 0.0 1.6 0.00 0.00 0.00 83 1015.0
20260508102831 21 165 0.0 1.6 0.00 0.00 0.00 84 1014.9
20260508102325 21 200 0.0 0.0 0.00 0.00 0.00 84 1014.9
20260508101837 21 200 0.0 0.0 0.00 0.00 0.00 84 1014.9
20260508101342 21 200 0.0 0.0 0.00 0.00 0.00 84 1014.8
20260508100829 21 200 0.0 0.0 0.00 0.00 0.00 84 1014.8
20260508100339 21 200 0.0 0.0 0.00 0.00 0.00 84 1014.7
20260508095842 21 200 0.0 0.0 0.00 0.00 0.00 84 1014.7
20260508095408 21 200 0.0 0.0 0.00 0.00 0.00 84 1014.6
20260508094858 21 200 0.0 0.0 0.00 0.00 0.00 84 1014.6
20260508094337 21 200 0.0 0.0 0.00 0.00 0.00 84 1014.5
20260508093829 21 200 0.0 0.0 0.00 0.00 0.00 84 1014.5
20260508093325 21 200 0.0 0.0 0.00 0.00 0.00 84 1014.6
20260508092846 21 200 0.0 0.0 0.00 0.00 0.00 84 1014.6
20260508092340 21 200 0.0 0.0 0.00 0.00 0.00 84 1014.6
20260508091825 21 200 0.0 0.0 0.00 0.00 0.00 84 1014.5
20260508091335 21 200 0.0 0.0 0.00 0.00 0.00 85 1014.6
20260508090828 21 200 0.0 0.0 0.00 0.00 0.00 85 1014.6
20260508090343 21 200 0.0 0.0 0.00 0.00 0.00 85 1014.5
20260508085856 21 200 0.0 0.0 0.00 0.00 0.00 85 1014.7
20260508085326 22 200 0.0 0.0 0.00 0.00 0.00 85 1014.6
20260508084834 22 200 0.0 0.0 0.00 0.00 0.00 85 1014.6
20260508084327 22 200 0.0 0.0 0.00 0.00 0.00 85 1014.5
20260508083849 22 200 0.0 0.0 0.00 0.00 0.00 85 1014.5
20260508083333 22 200 0.0 0.0 0.00 0.00 0.00 85 1014.5
20260508082845 22 200 0.0 0.0 0.00 0.00 0.00 85 1014.5
20260508082355 22 200 0.0 0.0 0.00 0.00 0.00 85 1014.5
20260508081844 22 200 0.0 0.0 0.00 0.00 0.00 85 1014.3
20260508081355 22 200 0.0 0.0 0.00 0.00 0.00 85 1014.5
20260508080846 22 200 0.0 0.0 0.00 0.00 0.00 85 1014.5
20260508080355 22 200 0.0 0.0 0.00 0.00 0.00 85 1014.6
20260508075848 22 200 0.0 0.0 0.00 0.00 0.00 85 1014.5
20260508075328 22 200 0.0 0.0 0.00 0.00 0.00 85 1014.5
20260508074840 22 200 0.0 0.0 0.00 0.00 0.00 85 1014.5
20260508074332 22 200 0.0 0.0 0.00 0.00 0.00 85 1014.5
20260508073823 22 200 0.0 0.0 0.00 0.00 0.00 85 1014.5
20260508073333 22 200 0.0 0.0 0.00 0.00 0.00 86 1014.5
20260508072908 22 200 0.0 0.0 0.00 0.00 0.00 86 1014.5
20260508072343 22 200 0.0 0.0 0.00 0.00 0.00 86 1014.5
20260508071827 23 200 0.0 0.0 0.00 0.00 0.00 86 1014.4
20260508071334 23 200 0.0 0.0 0.00 0.00 0.00 87 1014.5
20260508070826 23 200 0.0 0.0 0.00 0.00 0.00 88 1014.5
20260508070346 23 200 0.0 0.0 0.00 0.00 0.00 88 1014.6
20260508065840 23 200 0.0 0.0 0.00 0.00 0.00 88 1014.7
20260508065334 23 200 0.0 0.0 0.00 0.00 0.00 88 1014.6
20260508064826 23 200 0.0 0.0 0.00 0.00 0.00 88 1014.5
20260508064335 23 200 0.0 0.0 0.00 0.00 0.00 87 1014.6
20260508063826 23 200 0.0 0.0 0.00 0.00 0.00 87 1014.7
20260508063324 23 200 0.0 0.0 0.00 0.00 0.00 87 1014.8
20260508062824 23 200 0.0 0.0 0.00 0.00 0.00 87 1014.8
20260508062335 23 154 0.0 0.0 0.00 0.00 0.00 87 1014.9
20260508061834 23 154 0.0 0.0 0.00 0.00 0.00 87 1015.0
20260508061329 23 154 0.0 0.0 0.00 0.00 0.00 87 1015.0
20260508060823 23 154 0.0 0.0 0.00 0.00 0.00 87 1015.1
20260508060338 23 154 0.0 0.0 0.00 0.00 0.00 87 1015.1
20260508055831 23 154 0.0 0.0 0.00 0.00 0.00 87 1015.0
20260508055342 23 154 0.0 0.0 0.00 0.00 0.00 86 1015.1
20260508054829 23 154 0.0 0.0 0.00 0.00 0.00 86 1015.0
20260508054321 23 154 0.0 0.0 0.00 0.00 0.00 86 1015.1
20260508053906 23 154 0.0 0.0 0.00 0.00 0.00 86 1015.1
20260508053336 23 154 0.0 0.0 0.00 0.00 0.00 85 1015.2
20260508052821 24 155 0.0 0.0 0.00 0.00 0.00 85 1015.2
20260508052330 24 155 0.0 0.0 0.00 0.00 0.00 85 1015.3